DW9572 Weather Reports


Display with metric or nautical units.
time (UTC)temp
F
wind
direction
speed
MPH
gust
MPH
rain 1hr
in
rain 24hr
in
rain mn
in
humidity
%
barometer
mb
20260902203009 77 226 12.0 23.0 0.00 0.00 0.00 35 1004.9
20260902201506 76 216 13.0 18.0 0.00 0.00 0.00 36 1005.0
20260902200008 76 179 11.0 22.0 0.00 0.00 0.00 37 1005.4
20260902194551 75 195 13.0 20.0 0.00 0.00 0.00 39 1005.5
20260902193044 74 254 17.0 25.0 0.00 0.00 0.00 38 1005.8
20260902191521 74 225 13.0 21.0 0.00 0.00 0.00 41 1006.0
20260902190021 73 211 14.0 23.0 0.00 0.00 0.00 40 1006.2
20260902184501 73 240 15.0 23.0 0.00 0.00 0.00 42 1006.2
20260902183100 73 239 17.0 25.0 0.00 0.00 0.00 42 1006.4
20260902181541 72 208 16.0 22.0 0.00 0.00 0.00 42 1006.5
20260902180039 72 185 8.0 23.0 0.00 0.00 0.00 43 1006.6
20260902174520 72 252 18.0 23.0 0.00 0.00 0.00 44 1006.5
20260902173025 70 191 6.0 23.0 0.00 0.00 0.00 46 1006.7
20260902171600 69 193 12.0 20.0 0.00 0.00 0.00 49 1006.8
20260902170057 69 207 11.0 19.0 0.00 0.00 0.00 52 1006.9
20260902164536 68 200 12.0 17.0 0.00 0.00 0.00 52 1006.7
20260902163036 66 191 9.0 12.0 0.00 0.00 0.00 61 1007.0
20260902161512 62 207 2.0 6.0 0.00 0.00 0.00 66 1007.0
20260902160012 62 229 7.0 11.0 0.00 0.00 0.00 66 1007.1
20260902154559 60 193 3.0 8.0 0.00 0.00 0.00 68 1007.3
20260902153053 60 193 3.0 6.0 0.00 0.00 0.00 67 1007.3
20260902151539 61 246 4.0 7.0 0.00 0.00 0.00 66 1007.4
20260902150035 59 226 6.0 8.0 0.00 0.00 0.00 71 1007.5
20260902144515 58 269 2.0 6.0 0.00 0.00 0.00 71 1007.5
20260902143014 58 264 6.0 12.0 0.00 0.00 0.00 69 1007.1
20260902141551 59 273 9.0 14.0 0.00 0.00 0.00 65 1006.9
20260902140049 64 238 13.0 22.0 0.00 0.00 0.00 56 1006.7
20260902134535 62 285 15.0 22.0 0.00 0.00 0.00 58 1006.2
20260902133023 60 256 5.0 10.0 0.00 0.00 0.00 65 1006.4
20260902131503 61 333 5.0 9.0 0.00 0.00 0.00 61 1006.3
20260902130002 64 266 4.0 11.0 0.00 0.00 0.00 55 1006.5
20260902124551 62 278 12.0 33.0 0.00 0.00 0.00 59 1006.7
20260902123050 60 200 14.0 17.0 0.00 0.00 0.00 63 1006.6
20260902121548 60 193 10.0 16.0 0.00 0.00 0.00 63 1006.5
20260902120046 61 212 10.0 15.0 0.00 0.00 0.00 63 1006.3
20260902114546 61 202 12.0 17.0 0.00 0.00 0.00 62 1006.5
20260902113050 61 207 16.0 21.0 0.00 0.00 0.00 62 1006.2
20260902111540 62 197 12.0 15.0 0.00 0.00 0.00 60 1006.1
20260902110042 62 246 10.0 14.0 0.00 0.00 0.00 59 1005.8
20260902104541 63 218 6.0 9.0 0.00 0.00 0.00 57 1005.7
20260902103020 65 246 8.0 15.0 0.00 0.00 0.00 54 1005.4
20260902101502 66 282 10.0 16.0 0.00 0.00 0.00 52 1005.5
20260902100002 65 278 3.0 13.0 0.00 0.00 0.00 54 1005.7
20260902094544 63 269 9.0 16.0 0.00 0.00 0.00 58 1005.5
20260902093043 62 269 9.0 19.0 0.00 0.00 0.00 61 1005.5
20260902091524 62 269 15.0 20.0 0.00 0.00 0.00 62 1005.5
20260902090023 63 271 15.0 20.0 0.00 0.00 0.00 63 1005.5
20260902084503 64 260 12.0 14.0 0.00 0.00 0.00 61 1005.6
20260902083005 65 293 3.0 6.0 0.00 0.00 0.00 58 1005.4
20260902081607 66 355 0.0 3.0 0.00 0.00 0.00 57 1005.0
20260902080055 67 336 4.0 13.0 0.00 0.00 0.00 56 1005.0
20260902074527 69 333 3.0 10.0 0.00 0.00 0.00 52 1005.0
20260902073025 67 254 4.0 13.0 0.00 0.00 0.00 57 1005.0
20260902071507 68 193 12.0 19.0 0.00 0.00 0.00 55 1005.0
20260902070007 68 276 8.0 13.0 0.00 0.00 0.00 55 1005.0
20260902064550 68 215 17.0 26.0 0.00 0.00 0.00 54 1004.7
20260902063111 68 210 19.0 27.0 0.00 0.00 0.00 53 1004.5
20260902061531 69 271 17.0 25.0 0.00 0.00 0.00 51 1004.4
20260902060033 70 240 15.0 19.0 0.00 0.00 0.00 50 1004.1
20260902054512 71 259 13.0 16.0 0.00 0.00 0.00 48 1004.0
20260902053014 72 247 10.0 13.0 0.00 0.00 0.00 45 1004.1
20260902051603 75 212 5.0 11.0 0.00 0.00 0.00 42 1004.0
20260902050055 74 55 3.0 8.0 0.00 0.00 0.00 43 1003.7
20260902044545 74 288 4.0 10.0 0.00 0.00 0.00 42 1003.3
20260902043046 71 308 4.0 9.0 0.00 0.00 0.00 49 1003.3
20260902041542 72 276 6.0 9.0 0.00 0.00 0.00 49 1003.3
20260902040041 74 333 2.0 7.0 0.00 0.00 0.00 47 1003.1
20260902034540 75 68 2.0 3.0 0.00 0.00 0.00 47 1003.0
20260902033039 75 345 2.0 6.0 0.00 0.00 0.00 46 1002.7
20260902031542 76 332 1.0 2.0 0.00 0.00 0.00 46 1002.5
20260902030038 76 98 0.0 2.0 0.00 0.00 0.00 45 1002.3
20260902024538 76 305 0.0 1.0 0.00 0.00 0.00 45 1002.5
20260902023019 77 290 1.0 3.0 0.00 0.00 0.00 43 1002.4
20260902021530 78 150 1.0 8.0 0.00 0.00 0.00 42 1002.4
20260902020131 78 132 6.0 8.0 0.00 0.00 0.00 42 1002.2
20260902014603 79 110 8.0 12.0 0.00 0.00 0.00 41 1002.3
20260902013040 80 96 8.0 13.0 0.00 0.00 0.00 40 1002.4
20260902011542 80 120 9.0 12.0 0.00 0.00 0.00 39 1002.4
20260902010027 82 142 6.0 11.0 0.00 0.00 0.00 39 1002.3
20260902004524 82 110 9.0 12.0 0.00 0.00 0.00 38 1002.4
20260902003005 83 114 8.0 11.0 0.00 0.00 0.00 36 1002.4
20260902001502 84 151 8.0 12.0 0.00 0.00 0.00 32 1002.4
20260902000046 84 145 8.0 10.0 0.00 0.00 0.00 33 1002.4
20260901234601 85 175 6.0 9.0 0.00 0.00 0.00 32 1002.6
20260901233024 85 143 5.0 10.0 0.00 0.00 0.00 30 1002.7
20260901231521 84 132 2.0 11.0 0.00 0.00 0.00 31 1002.6
20260901230008 84 191 6.0 14.0 0.00 0.00 0.00 31 1002.9
20260901224600 84 195 13.0 18.0 0.00 0.00 0.00 32 1002.9
20260901223041 83 221 16.0 19.0 0.00 0.00 0.00 33 1003.0
20260901221602 82 215 13.0 18.0 0.00 0.00 0.00 35 1003.3
20260901220017 82 194 9.0 14.0 0.00 0.00 0.00 34 1003.4
20260901214518 81 181 7.0 13.0 0.00 0.00 0.00 35 1003.5
20260901213003 82 221 9.0 16.0 0.00 0.00 0.00 33 1003.8
20260901211601 81 197 8.0 14.0 0.00 0.00 0.00 35 1003.9
20260901210056 80 198 7.0 14.0 0.00 0.00 0.00 35 1004.3
20260901204557 80 202 7.0 13.0 0.00 0.00 0.00 34 1004.5